Terminal Aerodrome Forecast
Issued by NWS Indianapolis, IN

Home | Current Version | Previous Version | Text Only | Print | Product List | Glossary On
Versions: 1 2 3 4 5 6 7 8 9 10 11 12 13 14 15 16 17 18 19 20 21 22 23 24 25 26 27
755
FTUS43 KIND 012009 AAA
TAFIND
TAF AMD
KIND 012009Z 0120/0224 20007KT P6SM VCSH BKN050
     FM020300 20004KT P6SM BKN070
     FM020700 22004KT 5SM BR BKN050 PROB30 0207/0209 2SM -SHRA BR
      OVC025
     FM021200 VRB03KT 3SM BR BKN008
     FM021500 VRB03KT P6SM BKN015
     FM021800 28005KT P6SM BKN025
     FM021900 28005KT P6SM BKN035=

USA.gov is the U.S. government's official web portal to all federal, state and local government web resources and services.